Starlink 31521

operational
NORAD ID: 59015 Int'l Des: 2024-036 Owner: SPXS Country: US Constellation: starlink
LEOCIRCULAR

Über Starlink 31521

Beschreibung wird geladen...

Live-Position

3D-Globus wird geladen...

Nächste Überflüge

Höhenverlauf

Altitude vs Time

uPlot chart will show altitude changes over time

Zweizeiliger Elementsatz

1 59015U 24036T 26035.73372218 -.00000011 00000-0 11748-4 0 9992
2 59015 53.1588 231.4768 0001180 85.8639 274.2497 15.30189569110275
Epoch: 4. Feb. 2026 • Age: 18 hours

Aktueller Status

Höhe 476.2 km
Geschwindigkeit 7.63 km/s
Subsatellitenpunkt 27.85°N, 76.99°E
Startdatum 23. Feb. 2024
Alter 1.9 years
Typ internet

Technische Details

Klassifizierung Payload
Masse 730.00 kg
Trockenmasse 700.00 kg
Gesamtmasse 730.00 kg
Länge 0.30 m
Durchmesser 4.10 m
Spannweite 29.00 m
Form Box + pan
Hersteller SPXS
Bus-Typ Starlink V2M
Phasenstatus In Orbit
Besitzer/Staat SPXS/US

Große Konstellationen

Loading constellations...